Flag for Colombia Weather past 2 weeks in Barranquilla, Colombia

Now
79 °F

Clear.


Feels Like: 81 °F
Forecast: 79 / 86 °F
Wind: 12 mph from Northeast

Location: Barranquilla / Ernestocortissoz

Current Time: Mar 2, 2015 at 3:01:33 AM

Latest Report: Mar 2, 2015 at 2:00 AM


Visibility: 10 mi

Pressure: 29.83 "Hg

Humidity: 74%

Dew point: 70 °F

Location of BarranquillaLocation

Historic Weather in Barranquilla — Graph

°F

Barranquilla temperature yesterday

Maximum temperature yesterday: 90 °F (at 11:00 AM)
Minimum temperature yesterday: 79 °F (at 1:00 AM)
Average temperature yesterday: 82 °F

Past Weeks' High & Low Weather Summary

 TemperatureHumidityPressure
High93 °F (Feb 26, 1:00 PM)100% (Feb 18, 8:00 AM)29.94 "Hg (Feb 18, 8:00 AM)
Low73 °F (Feb 25, 6:00 AM)55% (Feb 25, 11:00 AM)29.73 "Hg (Feb 16, 6:00 PM)
Average82 °F78%29.82 "Hg
* Reported Feb 15 2:00 AM — Mar 2 2:00 AM, Barranquilla, Weather by CustomWeather, © 2015

Note: Actual official high and low records may vary slightly from our data, if they occured in-between our weather recording intervals... More about our weather records

Advertising

Barranquilla weather history for previous 24 hours

 ConditionsComfort  
Time TempWeatherWind HumidityBarometerVisibility
2:00 AM
Mon, Mar 2
79 °FClear.12 mph89%29.83 "Hg10 mi
1:00 AM79 °FClear.5 mph79%29.85 "Hg10 mi
12:00 AM79 °FClear.23 mph79%29.86 "Hg10 mi
11:00 PM
Sun, Mar 1
79 °FClear.15 mph79%29.86 "Hg10 mi
10:00 PM79 °FClear.18 mph79%29.85 "Hg10 mi
9:00 PM81 °FClear.21 mph70%29.83 "Hg10 mi
8:00 PM81 °FClear.15 mph74%29.81 "Hg10 mi
7:00 PM81 °FClear.22 mph74%29.78 "Hg10 mi
6:00 PM82 °FSunny.16 mph70%29.77 "Hg10 mi
5:00 PM82 °FSunny.13 mph74%29.78 "Hg10 mi
4:00 PM84 °FSunny.16 mph74%29.79 "Hg10 mi
3:00 PM88 °FSunny.12 mph66%29.80 "Hg10 mi
2:00 PM86 °FSunny.21 mph70%29.82 "Hg10 mi
1:00 PM88 °FSunny.6 mph66%29.85 "Hg10 mi
12:00 PM88 °FSunny.14 mph62%29.86 "Hg10 mi
11:00 AM90 °FSunny.10 mph59%29.88 "Hg10 mi
10:00 AM88 °FSunny.8 mph62%29.90 "Hg10 mi
9:00 AM84 °FSunny.9 mph66%29.89 "Hg10 mi
8:00 AM81 °FSunny.14 mph79%29.88 "Hg10 mi
7:00 AM79 °FSunny.13 mph84%29.88 "Hg10 mi
6:00 AM79 °FClear.12 mph84%29.85 "Hg10 mi
5:00 AM79 °FClear.9 mph84%29.84 "Hg10 mi
4:00 AM79 °FClear.12 mph79%29.83 "Hg10 mi
3:00 AM79 °FClear.13 mph79%29.83 "Hg10 mi
Weather by CustomWeather, © 2015

See weather overviewHow to use our weather pages